Location: La Tine
(46.4708°N, 7.0525°E)
Time: 07:19:41
(UTC+00:00)

HJ-1C - Pass Details

Date: 08 August 2021
Orbit: 423 x 438 km, 97.1° (Epoch: 25 September)

Event Time Altitude Azimuth Distance (km) Brightness Sun altitude
Rises 19:27:56 0° 210° (SSW) 2,403 7.1 -6.2°
Reaches altitude 10° 19:30:49 10° 240° (WSW) 1,546 6.5 -6.7°
Maximum altitude 19:32:27 13° 269° (W) 1,374 6.8 -6.9°
Drops below altitude 10° 19:34:06 10° 299° (WNW) 1,558 7.9 -7.1°
Sets 19:37:02 0° 328° (NNW) 2,438 8.5 -7.6°
